{"data":{"norad_id":87300,"epoch":"2026-09-16T07:38:29.703840Z","epoch_age_seconds":375714,"freshness":"STALE","line1":"1 87300U          26259.31839935  .00001108  00000+0  78411-3 0  9996","line2":"2 87300 100.0897 275.0872 0025232 270.5311  89.2959 14.00204202651952","mean_motion":14.00204202,"eccentricity":0.0025232,"inclination_deg":100.0897,"raan_deg":275.0872,"arg_perigee_deg":270.5311,"mean_anomaly_deg":89.2959,"bstar":0.00078411,"rev_number":65195,"period_min":102.84214244916,"perigee_km":874.74135566801,"apogee_km":911.43486606749,"semimajor_km":7271.2251108678,"source":"CELESTRAK","updated_at":"2026-09-20T09:00:32.453600Z"}}